Theta_e
342 347 351 350 353 352 354 348 346 346 350 350 349 349 350 349 350 349 347 345 346 347 346 348 350 349 344 347 351 351 351 352 351 350 350 349 349 350 349 349 348 343 346
342 347 350 351 351 353 350 349 347 350 349 350 348 347 346 346 349 347 348 347 343 347 350 350 351 351 348 351 351 351 350 350 349 351 351 350 350 350 346 348 347 347 349
342 347 352 351 348 354 348 349 348 350 351 348 348 347 348 345 346 347 349 351 351 351 353 352 353 352 351 351 350 351 350 350 348 349 346 344 347 349 349 348 346 345 344
342 348 351 352 347 351 349 348 347 349 351 349 347 347 347 347 345 350 350 351 349 350 352 353 353 352 350 350 350 350 350 349 349 347 345 340 339 347 344 350 349 347 347
343 347 351 350 350 343 346 347 348 348 349 348 348 351 351 350 348 351 351 351 351 347 352 351 352 352 350 351 350 351 351 348 346 347 347 344 341 346 341 348 346 347 347
343 347 352 348 353 345 345 348 348 349 347 347 349 348 349 349 351 351 352 352 352 352 351 351 351 352 352 351 349 350 350 347 345 347 348 347 345 349 345 338 348 343 345
344 348 354 350 350 349 344 346 348 347 348 348 351 352 351 350 348 349 352 352 352 351 352 352 350 351 351 350 350 349 349 344 344 346 348 346 345 344 346 348 347 340 342
345 347 353 352 350 349 345 344 350 348 352 353 353 352 352 351 351 348 351 352 352 351 351 348 352 350 349 350 347 347 349 349 347 344 345 345 345 345 342 348 347 336 335
345 346 352 354 355 353 351 351 351 353 351 352 353 351 350 351 352 352 351 349 351 352 351 350 351 348 350 350 347 344 346 349 350 349 347 345 338 342 348 349 346 346 337
346 347 350 354 354 354 354 353 350 351 352 351 351 351 352 353 352 352 349 350 351 351 351 350 350 349 349 348 345 344 346 347 349 348 348 345 338 345 349 347 346 345 338
348 350 351 353 354 355 353 354 351 352 353 354 353 353 352 353 351 353 349 348 352 351 350 351 349 348 347 347 344 345 344 349 347 347 347 342 341 344 348 346 344 344 342
349 351 351 352 352 353 351 354 354 353 351 352 353 353 350 350 350 352 349 347 349 349 349 349 348 346 341 346 347 344 349 349 348 347 348 345 343 341 342 347 345 343 338
349 351 352 352 353 351 349 350 352 351 351 354 351 350 351 350 350 351 351 347 348 350 347 348 348 347 345 346 348 348 349 348 347 349 349 347 347 345 336 345 346 344 340
349 350 351 351 353 351 350 350 351 350 353 351 351 351 350 351 352 352 351 352 346 345 350 350 349 349 347 345 346 347 346 346 346 346 348 342 341 344 344 337 346 340 339
349 349 350 353 353 352 352 350 351 350 349 347 354 352 351 352 351 351 351 350 349 346 352 350 348 346 346 345 344 345 345 344 344 345 346 344 344 345 345 336 340 339 344
348 349 350 352 353 352 351 351 350 349 349 349 352 352 351 351 351 351 352 349 350 349 348 350 351 346 345 343 343 344 345 344 345 348 346 347 344 345 345 335 335 338 339
348 348 349 351 351 351 349 349 350 350 350 350 351 352 350 349 343 349 351 349 348 351 349 346 347 349 348 346 346 345 344 344 344 347 347 348 348 345 343 341 333 338 340
348 348 349 349 350 350 348 346 349 348 348 347 348 349 350 348 348 346 349 349 349 349 350 351 348 346 345 347 346 345 343 344 345 346 346 348 348 349 349 342 338 339 342
350 348 349 350 349 350 349 348 349 349 347 347 347 348 349 349 348 350 347 348 350 350 352 352 351 349 347 343 342 344 343 343 345 346 346 347 348 347 348 348 344 342 343
351 350 348 349 349 350 349 349 347 347 347 347 348 348 348 349 348 348 348 350 350 351 352 352 352 351 349 347 344 341 342 343 345 348 347 346 346 347 348 349 348 347 344
350 350 349 348 348 348 348 346 346 345 345 345 346 349 350 348 348 349 348 349 351 351 351 352 352 352 351 350 349 348 347 346 344 344 346 347 345 345 346 347 347 347 348
351 351 350 350 349 347 347 346 346 345 344 344 344 346 347 349 349 349 350 349 350 349 350 351 351 350 350 350 348 347 348 343 343 342 343 346 347 347 346 347 348 348 348
352 352 352 350 350 348 347 347 347 347 346 346 346 346 347 348 349 349 350 350 351 351 350 352 351 351 350 350 349 346 351 349 341 344 346 344 345 347 347 348 349 349 348
345 350 353 352 351 349 348 349 349 348 348 347 347 347 346 349 348 349 350 351 351 350 350 352 352 352 349 350 348 348 346 347 348 349 346 346 348 349 349 348 348 349 348
342 346 350 353 352 351 350 349 350 350 349 349 350 349 347 348 348 347 347 350 352 352 351 352 352 351 351 348 347 348 347 346 346 346 347 345 348 347 348 349 348 348 348
338 340 345 350 353 352 352 351 351 351 351 351 351 351 351 350 349 349 348 348 348 351 351 351 351 349 349 347 347 347 347 347 348 348 349 346 347 346 346 347 348 348 348
Wind_Speed
22 22 22 21 19 20 22 27 26 24 23 25 26 27 26 27 26 26 24 23 23 21 18 15 12 13 15 14 13 14 14 16 16 15 14 14 15 16 18 17 16 15 17
29 25 24 22 22 22 24 26 25 25 25 25 26 27 28 27 24 25 23 21 20 19 16 15 13 13 12 12 12 12 13 14 15 15 14 14 14 14 15 15 14 15 15
30 27 23 23 22 21 24 23 24 24 23 25 25 25 25 26 24 22 20 18 17 15 15 14 12 12 11 10 11 12 12 14 14 14 12 11 10 13 14 14 13 13 14
30 27 24 24 23 23 23 23 24 24 23 24 26 23 24 24 23 20 19 16 15 15 13 12 11 11 10 9 10 11 13 13 12 12 10 10 10 12 14 12 13 13 13
29 25 24 26 23 23 23 22 22 22 23 24 24 22 20 21 22 19 16 15 13 14 12 11 10 11 10 10 10 13 13 12 11 11 9 9 10 10 13 13 11 11 11
29 25 24 24 22 22 23 24 23 22 22 23 22 22 20 20 20 18 15 15 14 13 12 11 11 10 11 11 11 11 12 11 11 8 8 8 8 11 10 11 10 9 8
27 24 23 23 23 23 22 21 21 22 22 22 21 20 19 18 18 17 16 15 14 13 11 11 11 11 11 12 13 12 11 11 8 7 7 6 7 9 9 10 8 8 7
27 24 22 23 24 23 23 22 20 20 20 20 19 19 18 17 17 18 16 15 14 13 12 10 13 12 12 12 15 12 10 7 5 5 5 5 7 6 8 9 8 7 7
23 23 20 21 22 23 23 22 21 19 20 18 18 17 17 17 15 15 15 15 14 14 12 11 13 13 13 13 13 10 7 6 4 5 5 5 7 8 7 6 6 5 6
22 21 20 19 21 21 20 21 21 20 18 18 16 16 16 15 15 14 14 14 14 13 13 13 13 13 13 13 12 10 6 4 4 5 6 5 6 5 6 6 5 5 5
21 21 21 21 21 21 20 20 20 18 17 16 16 16 16 15 14 14 14 13 12 12 12 11 11 12 13 11 11 9 5 2 4 5 5 5 5 7 6 7 7 7 7
26 24 23 23 21 20 19 18 18 18 16 16 15 15 16 15 16 13 12 13 12 11 11 11 13 12 12 10 9 8 5 3 3 5 4 4 5 6 8 9 8 8 8
30 26 25 24 22 22 19 18 18 18 17 16 16 16 15 15 14 12 12 12 12 11 11 11 12 12 13 11 10 9 6 4 3 4 5 5 6 9 9 11 10 11 10
30 30 26 25 23 23 21 21 19 18 18 18 18 18 17 16 15 14 12 12 11 12 11 12 11 11 11 11 10 9 7 6 5 5 7 9 10 11 12 11 12 12 11
31 30 29 26 25 23 21 21 20 21 20 19 18 19 18 17 16 15 13 13 11 12 11 11 10 11 10 10 11 10 9 8 7 7 8 11 11 10 13 11 11 12 12
29 30 28 26 25 24 22 20 20 19 19 19 19 20 24 18 17 16 14 14 13 12 10 10 10 10 10 11 12 11 11 10 9 9 9 10 9 9 12 13 13 12 12
27 25 28 27 26 25 25 21 20 19 20 21 21 20 25 21 20 17 15 15 14 13 13 13 11 10 10 10 11 11 12 12 11 10 9 9 8 9 12 14 15 14 14
22 25 24 25 27 26 25 25 22 20 20 19 20 21 23 23 21 20 16 16 14 14 13 12 11 11 12 12 12 12 13 12 12 12 11 9 9 8 12 16 17 16 15
24 25 26 25 26 27 26 23 23 22 21 19 18 20 21 21 21 19 17 16 16 15 13 12 12 13 11 12 13 14 14 14 14 13 13 13 12 12 11 14 18 19 18
24 26 29 29 29 28 25 24 22 21 21 20 20 20 21 22 21 21 19 17 17 16 15 15 14 13 13 12 13 14 14 16 16 16 15 15 15 15 14 15 15 18 23
31 30 32 37 33 30 27 27 26 26 24 24 23 22 22 24 23 22 21 19 18 18 17 16 14 14 14 13 11 14 17 18 19 19 18 17 17 17 16 17 18 18 19
21 29 30 33 35 38 34 31 27 27 25 25 23 23 25 25 25 24 23 21 21 19 19 20 18 16 16 15 11 9 8 15 20 23 23 22 19 18 19 19 20 21 21
21 30 30 35 37 40 37 29 24 19 19 22 25 26 27 27 26 27 26 25 22 22 21 21 21 21 20 15 17 11 3 8 11 14 21 25 23 21 21 21 21 22 23
7 20 25 29 33 35 37 33 34 32 29 29 30 29 27 28 29 28 28 26 26 24 25 23 20 21 22 19 11 17 20 7 4 4 6 11 13 15 18 20 20 20 22
12 10 20 27 31 31 37 36 35 33 31 27 27 29 34 30 32 33 33 29 27 26 24 24 21 21 21 25 20 13 20 19 14 10 9 8 7 9 9 7 8 13 16
12 10 5 14 26 32 35 38 36 36 31 29 29 29 29 32 29 33 35 37 34 28 26 24 24 24 23 23 21 17 18 12 17 14 11 17 17 21 18 17 17 17 17
Wind_Direction
157 153 149 144 138 131 126 142 141 140 135 136 138 135 133 133 133 134 125 128 131 127 127 127 124 116 107 108 110 113 113 114 111 111 113 112 110 111 108 107 99 101 107
153 152 146 146 139 137 135 139 144 141 139 140 143 139 139 138 138 136 130 126 134 131 132 131 131 123 117 112 116 114 117 115 113 115 115 115 115 111 108 109 106 110 108
154 152 147 147 142 141 143 143 142 138 139 146 144 144 140 144 143 140 135 127 131 134 135 136 136 135 129 123 125 124 126 121 124 123 122 122 122 116 115 110 108 110 113
154 153 150 150 148 148 143 145 144 140 144 147 148 150 150 149 150 143 141 137 136 141 137 138 141 140 141 138 132 129 128 123 128 132 113 118 127 124 119 117 113 112 114
156 156 155 153 154 151 147 149 145 145 147 151 151 151 152 154 153 148 147 145 140 143 143 144 145 143 144 142 139 139 133 132 142 131 124 123 125 124 126 117 117 119 115
158 158 158 161 157 155 156 155 153 150 150 153 152 156 158 160 157 155 159 159 157 154 157 155 149 150 145 143 145 148 142 141 126 141 133 132 128 136 136 132 123 129 124
162 162 162 165 165 164 165 162 159 159 159 157 157 156 160 165 170 170 170 167 168 162 164 166 162 153 153 148 149 147 146 143 128 135 143 140 136 145 141 132 141 144 143
166 166 167 169 170 171 171 170 167 167 164 161 161 161 164 166 177 177 175 176 178 171 169 173 165 155 156 157 162 153 153 150 137 144 162 155 163 150 148 148 158 149 145
173 173 172 171 172 173 174 173 172 170 171 167 167 167 166 169 176 175 177 181 178 174 167 166 161 158 159 163 166 174 169 195 190 189 188 170 178 164 165 175 167 173 158
182 185 183 181 176 174 180 179 178 177 174 171 173 175 173 167 170 172 178 180 180 174 172 168 166 164 168 168 171 178 193 234 207 183 181 185 179 157 187 201 204 198 188
193 192 191 189 182 179 180 185 184 181 181 178 180 179 178 178 178 174 180 182 175 184 177 172 175 175 176 180 183 188 196 218 183 171 169 208 198 190 201 219 231 210 217
190 195 194 192 187 184 181 184 185 183 188 187 185 184 185 184 179 185 182 184 186 181 183 177 181 178 182 188 197 199 209 201 201 200 198 230 236 236 208 230 243 230 225
187 189 194 194 189 185 183 187 190 189 189 190 192 192 194 191 187 186 180 182 187 189 179 181 182 183 192 197 199 206 217 227 222 230 246 265 268 255 243 228 237 245 235
187 190 192 196 194 188 185 187 192 191 192 193 194 194 195 195 193 189 190 190 184 187 188 189 187 196 201 201 210 216 226 240 246 258 267 285 281 267 248 241 243 243 244
189 191 192 192 193 193 193 190 195 196 199 198 195 198 197 197 194 195 195 196 192 197 196 194 198 206 209 205 216 223 230 242 256 265 276 284 284 257 242 244 249 247 244
190 192 192 195 195 194 196 199 200 199 198 199 201 203 206 202 199 198 196 199 200 203 207 205 206 210 215 215 220 226 238 242 253 265 278 281 281 259 240 242 254 260 256
190 193 196 195 196 199 200 203 208 208 204 204 205 205 208 208 208 201 200 203 202 205 207 213 215 217 217 224 228 232 239 244 246 260 277 270 264 261 251 245 250 258 262
189 193 197 198 199 200 203 205 208 212 212 215 213 212 210 213 211 212 208 208 206 205 208 213 215 221 224 225 231 235 239 243 246 256 264 256 251 251 258 249 247 252 259
193 194 196 202 201 202 204 205 210 213 213 217 218 217 214 214 214 212 214 213 209 208 214 216 219 223 230 231 236 238 239 239 241 245 249 248 251 255 256 254 255 257 257
201 205 195 199 202 202 203 206 212 217 219 219 223 223 219 217 217 218 221 220 219 220 222 220 221 225 229 233 237 243 244 243 242 244 249 248 247 250 255 258 261 260 257
195 195 201 192 198 196 202 205 210 214 218 220 221 222 224 222 219 220 223 224 221 223 225 226 227 232 237 237 241 244 248 246 245 246 248 249 247 250 254 260 263 261 260
203 203 199 203 194 199 200 207 212 212 214 220 222 221 222 225 223 220 220 225 223 223 224 225 223 229 238 228 221 237 258 245 242 244 245 248 249 251 253 256 256 261 261
213 208 204 204 202 200 201 200 200 210 215 211 219 222 219 220 222 223 222 222 224 222 228 229 228 227 234 231 228 220 224 243 251 238 235 241 246 249 252 254 255 258 260
331 238 224 213 205 204 202 198 196 197 204 210 207 214 217 216 217 219 222 224 227 226 228 230 233 233 239 231 229 233 238 268 256 259 233 239 239 246 250 253 254 256 259
9 360 239 214 212 208 205 206 201 207 207 207 208 206 210 217 218 216 221 224 226 229 233 233 231 230 238 244 239 239 230 236 244 262 272 254 252 255 251 244 245 263 267
353 347 354 240 224 213 210 210 209 210 208 207 206 204 208 210 215 221 223 227 230 229 229 231 234 235 231 245 256 261 247 236 231 233 249 260 267 271 265 264 263 262 264